AEE5SR LGSR-LGAV

Flight info

Callsign AEE5SR
Flight time 0h 29m
Altitude 16000
Route NETIS M601 MIL Y144 BADEL
Aircraft A320/M-SDE3FGHIRWY/LB1

Departure

Time 2026-04-23 20:34
Airport Santorini International Airport (LGSR)

Arrival

Time 2026-04-23 21:03
Airport Athens Eleftherios Venizelos International Airport (LGAV)
Time Latitude Longitude Altitude Speed Heading
2026-04-23 20:17 36.40382 25.47363 90 ft 0 kts 249°
2026-04-23 20:24 36.40384 25.47371 90 ft 3 kts 249°
2026-04-23 20:24 36.40391 25.47394 91 ft 3 kts 240°
2026-04-23 20:25 36.40405 25.47412 92 ft 3 kts 183°
2026-04-23 20:25 36.40426 25.47407 93 ft 3 kts 159°
2026-04-23 20:25 36.40429 25.47406 92 ft 0 kts 159°
2026-04-23 20:29 36.40418 25.47411 90 ft 3 kts 159°
2026-04-23 20:29 36.40388 25.47425 90 ft 6 kts 159°
2026-04-23 20:29 36.40340 25.47447 91 ft 9 kts 159°
2026-04-23 20:29 36.40278 25.47477 93 ft 7 kts 152°
2026-04-23 20:30 36.40273 25.47541 89 ft 9 kts 79°
2026-04-23 20:30 36.40150 25.47639 91 ft 14 kts 159°
2026-04-23 20:30 36.40052 25.47685 87 ft 17 kts 159°
2026-04-23 20:31 36.39941 25.47736 86 ft 19 kts 159°
2026-04-23 20:31 36.39813 25.47798 86 ft 22 kts 159°
2026-04-23 20:31 36.39661 25.47870 81 ft 26 kts 159°
2026-04-23 20:31 36.39476 25.47957 69 ft 31 kts 159°
2026-04-23 20:32 36.39285 25.48048 61 ft 26 kts 159°
2026-04-23 20:32 36.39131 25.48121 60 ft 17 kts 159°
2026-04-23 20:32 36.39037 25.48165 53 ft 12 kts 159°
2026-04-23 20:32 36.39008 25.48237 54 ft 10 kts 71°
2026-04-23 20:33 36.39042 25.48306 56 ft 9 kts 33°
2026-04-23 20:33 36.39100 25.48301 54 ft 9 kts 342°
2026-04-23 20:33 36.39230 25.48242 58 ft 47 kts 339°
2026-04-23 20:33 36.39741 25.48002 74 ft 107 kts 340°
2026-04-23 20:34 36.40563 25.47614 255 ft 134 kts 340°
2026-04-23 20:34 36.41430 25.47266 800 ft 132 kts 349°
2026-04-23 20:34 36.42326 25.47013 1323 ft 134 kts 348°
2026-04-23 20:34 36.43238 25.46745 1871 ft 136 kts 347°
2026-04-23 20:35 36.44223 25.46445 2102 ft 155 kts 348°
2026-04-23 20:35 36.45320 25.46149 2388 ft 168 kts 349°
2026-04-23 20:35 36.46534 25.45831 2620 ft 189 kts 349°
2026-04-23 20:35 36.47889 25.45461 2995 ft 205 kts 348°
2026-04-23 20:36 36.49259 25.44788 3359 ft 226 kts 324°
2026-04-23 20:36 36.50259 25.43148 3768 ft 253 kts 297°
2026-04-23 20:36 36.51016 25.41136 4622 ft 259 kts 296°
2026-04-23 20:36 36.51775 25.39091 5571 ft 262 kts 295°
2026-04-23 20:37 36.52537 25.37028 6520 ft 264 kts 295°
2026-04-23 20:37 36.53312 25.34943 7403 ft 267 kts 295°
2026-04-23 20:37 36.54096 25.32844 8301 ft 268 kts 294°
2026-04-23 20:37 36.54885 25.30731 9195 ft 271 kts 294°
2026-04-23 20:38 36.55682 25.28596 10074 ft 273 kts 294°
2026-04-23 20:38 36.56508 25.26384 10451 ft 293 kts 294°
2026-04-23 20:38 36.57400 25.23995 10722 ft 314 kts 293°
2026-04-23 20:38 36.58330 25.21503 11335 ft 320 kts 293°
2026-04-23 20:39 36.59271 25.18979 12071 ft 323 kts 293°
2026-04-23 20:39 36.60237 25.16443 12823 ft 325 kts 293°
2026-04-23 20:39 36.61204 25.13889 13592 ft 327 kts 292°
2026-04-23 20:39 36.62163 25.11310 14288 ft 329 kts 291°
2026-04-23 20:40 36.63120 25.08719 14959 ft 330 kts 291°
2026-04-23 20:40 36.64081 25.06111 15608 ft 332 kts 291°
2026-04-23 20:40 36.65045 25.03490 15928 ft 333 kts 291°
2026-04-23 20:40 36.66017 25.00849 16014 ft 342 kts 291°
2026-04-23 20:41 36.67019 24.98122 16014 ft 349 kts 291°
2026-04-23 20:41 36.68035 24.95367 16017 ft 351 kts 292°
2026-04-23 20:41 36.69056 24.92601 16016 ft 351 kts 292°
2026-04-23 20:41 36.70078 24.89833 16016 ft 351 kts 292°
2026-04-23 20:42 36.71102 24.87070 16015 ft 351 kts 292°
2026-04-23 20:42 36.72126 24.84304 16016 ft 352 kts 292°
2026-04-23 20:42 36.73389 24.81683 16016 ft 355 kts 301°
2026-04-23 20:42 36.74810 24.79164 16014 ft 355 kts 301°
2026-04-23 20:43 36.76229 24.76643 16017 ft 355 kts 301°
2026-04-23 20:43 36.77646 24.74119 16019 ft 355 kts 301°
2026-04-23 20:43 36.79064 24.71593 16020 ft 356 kts 301°
2026-04-23 20:43 36.80464 24.69096 16023 ft 356 kts 301°
2026-04-23 20:44 36.81879 24.66563 16025 ft 356 kts 301°
2026-04-23 20:44 36.83296 24.64029 16027 ft 356 kts 301°
2026-04-23 20:44 36.84714 24.61493 16028 ft 356 kts 301°
2026-04-23 20:44 36.86131 24.58960 16036 ft 356 kts 301°
2026-04-23 20:45 36.87549 24.56425 16038 ft 356 kts 301°
2026-04-23 20:45 36.88967 24.53889 16035 ft 356 kts 301°
2026-04-23 20:45 36.90385 24.51354 16038 ft 356 kts 301°
2026-04-23 20:45 36.91804 24.48820 16048 ft 356 kts 301°
2026-04-23 20:46 36.93224 24.46285 16045 ft 356 kts 301°
2026-04-23 20:46 36.94643 24.43749 16046 ft 356 kts 301°
2026-04-23 20:46 36.96059 24.41213 16045 ft 356 kts 301°
2026-04-23 20:46 36.97488 24.38688 16048 ft 357 kts 304°
2026-04-23 20:47 36.99323 24.36565 16064 ft 365 kts 322°
2026-04-23 20:47 37.01462 24.34844 16049 ft 366 kts 323°
2026-04-23 20:47 37.03620 24.33133 16042 ft 367 kts 323°
2026-04-23 20:47 37.05782 24.31427 16039 ft 368 kts 323°
2026-04-23 20:48 37.07216 24.30295 16045 ft 368 kts 323°
2026-04-23 20:48 37.09379 24.28586 16042 ft 368 kts 323°
2026-04-23 20:48 37.11543 24.26871 15973 ft 364 kts 323°
2026-04-23 20:48 37.13646 24.25204 15717 ft 352 kts 323°
2026-04-23 20:49 37.15678 24.23590 15464 ft 340 kts 323°
2026-04-23 20:49 37.17649 24.22022 15214 ft 332 kts 323°
2026-04-23 20:49 37.19591 24.20474 14969 ft 330 kts 323°
2026-04-23 20:49 37.21526 24.18927 14724 ft 329 kts 323°
2026-04-23 20:50 37.23448 24.17388 14451 ft 325 kts 323°
2026-04-23 20:50 37.25348 24.15868 14050 ft 323 kts 324°
2026-04-23 20:50 37.27238 24.14358 13573 ft 322 kts 325°
2026-04-23 20:50 37.29118 24.12853 13119 ft 320 kts 325°
2026-04-23 20:51 37.30986 24.11357 12684 ft 317 kts 325°
2026-04-23 20:51 37.32838 24.09874 12247 ft 315 kts 326°
2026-04-23 20:51 37.34681 24.08398 11814 ft 313 kts 326°
2026-04-23 20:51 37.36515 24.06932 11385 ft 312 kts 326°
2026-04-23 20:52 37.38930 24.04997 10818 ft 310 kts 326°
2026-04-23 20:52 37.40155 24.04013 10578 ft 308 kts 326°
2026-04-23 20:52 37.41927 24.02594 10453 ft 297 kts 327°
2026-04-23 20:52 37.43637 24.01222 10330 ft 286 kts 326°
2026-04-23 20:53 37.45286 23.99895 10210 ft 277 kts 326°
2026-04-23 20:53 37.46881 23.98611 10087 ft 268 kts 327°
2026-04-23 20:53 37.48424 23.97365 9965 ft 259 kts 326°
2026-04-23 20:53 37.49918 23.96159 9832 ft 251 kts 327°
2026-04-23 20:54 37.51369 23.94993 9678 ft 245 kts 327°
2026-04-23 20:54 37.52803 23.93839 9351 ft 245 kts 327°
2026-04-23 20:54 37.54237 23.92683 8975 ft 244 kts 327°
2026-04-23 20:54 37.55661 23.91532 8462 ft 243 kts 327°
2026-04-23 20:55 37.57081 23.90383 7967 ft 242 kts 328°
2026-04-23 20:55 37.58484 23.89248 7585 ft 238 kts 328°
2026-04-23 20:55 37.59870 23.88128 7233 ft 236 kts 328°
2026-04-23 20:55 37.61247 23.87018 6883 ft 234 kts 328°
2026-04-23 20:56 37.62627 23.85903 6554 ft 237 kts 328°
2026-04-23 20:56 37.64021 23.84776 6230 ft 238 kts 329°
2026-04-23 20:56 37.65396 23.83663 5915 ft 238 kts 329°
2026-04-23 20:56 37.66776 23.82548 5669 ft 232 kts 329°
2026-04-23 20:57 37.68139 23.81445 5230 ft 236 kts 329°
2026-04-23 20:57 37.69520 23.80328 5000 ft 232 kts 329°
2026-04-23 20:57 37.70846 23.79253 4906 ft 222 kts 329°
2026-04-23 20:57 37.72114 23.78222 4802 ft 212 kts 329°
2026-04-23 20:58 37.73441 23.77540 4720 ft 205 kts 355°
2026-04-23 20:58 37.74825 23.77796 4605 ft 203 kts 26°
2026-04-23 20:58 37.75993 23.78792 4388 ft 203 kts 36°
2026-04-23 20:58 37.77114 23.79869 4127 ft 202 kts 36°
2026-04-23 20:59 37.78235 23.80936 3864 ft 202 kts 36°
2026-04-23 20:59 37.79348 23.81991 3608 ft 197 kts 36°
2026-04-23 20:59 37.80420 23.83006 3336 ft 188 kts 35°
2026-04-23 20:59 37.81450 23.83981 3076 ft 182 kts 35°
2026-04-23 21:00 37.82453 23.84930 2840 ft 178 kts 35°
2026-04-23 21:00 37.83442 23.85867 2588 ft 177 kts 35°
2026-04-23 21:00 37.84425 23.86798 2351 ft 176 kts 35°
2026-04-23 21:00 37.85395 23.87718 2100 ft 168 kts 35°
2026-04-23 21:01 37.86259 23.88538 1892 ft 146 kts 34°
2026-04-23 21:01 37.87036 23.89276 1713 ft 137 kts 35°
2026-04-23 21:01 37.87782 23.89982 1506 ft 135 kts 34°
2026-04-23 21:01 37.88543 23.90703 1332 ft 134 kts 35°
2026-04-23 21:02 37.89278 23.91402 1139 ft 134 kts 35°
2026-04-23 21:02 37.90035 23.92120 951 ft 134 kts 35°
2026-04-23 21:02 37.90780 23.92830 774 ft 134 kts 36°
2026-04-23 21:02 37.91519 23.93540 598 ft 133 kts 35°
2026-04-23 21:03 37.92246 23.94233 417 ft 132 kts 35°
2026-04-23 21:03 37.92984 23.94923 299 ft 123 kts 36°
2026-04-23 21:03 37.93549 23.95458 286 ft 77 kts 37°
2026-04-23 21:03 37.93833 23.95702 279 ft 28 kts 14°
2026-04-23 21:04 37.93979 23.95730 287 ft 10 kts
2026-04-23 21:04 37.94028 23.95720 295 ft 4 kts 330°
2026-04-23 21:04 37.94039 23.95708 296 ft 1 kts 315°
2026-04-23 21:04 37.94051 23.95689 298 ft 3 kts 308°
2026-04-23 21:05 37.94068 23.95662 298 ft 5 kts 308°
2026-04-23 21:05 37.94097 23.95615 299 ft 9 kts 308°
2026-04-23 21:05 37.94139 23.95545 300 ft 11 kts 306°
2026-04-23 21:05 37.94189 23.95457 300 ft 14 kts 306°
2026-04-23 21:06 37.94215 23.95413 303 ft 0 kts 307°
2026-04-23 21:06 37.94216 23.95412 303 ft 0 kts 302°